Location: Asheville, NC
(35.6000°N, 82.5500°W)
Time: 05:03:45
(UTC-04:00)

Vanguard 1 Rocket - Pass Details

Date: 09 February 2018
Orbit: 652 x 4225 km, 34.3° (Epoch: 20 May)

Event Time Altitude Azimuth Distance (km) Brightness Sun altitude
Rises 21:53:05 0° 187° (S) 6,921 11.8 -46.2°
Reaches altitude 10° 21:59:04 10° 174° (S) 6,425 11.5 -47.4°
Enters shadow 21:59:39 11° 172° (S) 6,388 11.5 -47.5°
Maximum altitude 22:14:41 24° 129° (SE) 6,158 - -50.4°
Drops below altitude 10° 22:32:05 10° 87° (E) 7,327 - -53.6°
Sets 22:39:22 0° 76° (ENE) 8,094 - -54.9°
